EUTELSAT 8 WEST B

Last updated on Tue Oct 08 2024 00:02:40 GMT+0000 (Coordinated Universal Time)

1 40875U 15039B 24281.32697839 -.00000054 00000+0 00000+0 0 9994 2 40875 0.0668 2.1429 0003693 200.6082 283.4300 1.00273109 33495
UTC large
Height (km)
Speed (km/s)
/
Latitude / Longitude
Inclination (degrees)
Orbital Period (minutes)
Azimuth
Elevation
Range (km)
Doppler Factor

Next 0 passes for location: London (51.5072 / 0.1276)

Sorry there are no passes over London.